Location: �chemir�
(47.5500°N, 0.1667°W)
Time: 16:05:59
(UTC+02:00)

ISS - Pass Details

Date: 21 May 2021
Orbit: 419 x 422 km, 51.6° (Epoch: 25 June)

Event Time Altitude Azimuth Distance (km) Brightness Sun altitude
Rises 00:22:03 0° 286° (WNW) 2,373 0.7 -19.0°
Reaches altitude 10° 00:24:13 10° 294° (WNW) 1,508 -0.3 -19.1°
Maximum altitude 00:27:27 41° 6° (N) 624 -2.5 -19.3°
Enters shadow 00:29:49 16° 73° (ENE) 1,179 -1.6 -19.5°
